754  
ASUS43 KIWX 191710  
RWRIWX  
 
KIWX WEATHER ROUNDUP  
NATIONAL WEATHER SERVICE NORTHERN INDIANA  
1200 PM EST SAT JAN 19 2019  
 
NOTE: "FAIR" INDICATES FEW OR NO CLOUDS BELOW 12,000 FEET WITH NO  
SIGNIFICANT WEATHER AND/OR S TO VISIBILITY
.  
 
* THESE STATIONS ARE NOT UNDER NWS QUALITY CONTROL. THEY ALSO MAY NOT  
REPORT WEATHER SUCH AS PRECIPITATION OR FOG.
 
 
INZ001>027-191800-  
NORTHERN INDIANA  
 
CITY SKY/WX TMP DP RH WIND PRES REMARKS
 
GARY* LGT SNOW 27 25 93 E18G33 30.03R WCI 13  
VALPARAISO FLURRIES 27 19 72 NE15G24 29.98S WCI 15  
MICHIGAN CITY* LGT SNOW 23 18 80 NE8G17 30.02S WCI 14  
LAPORTE* LGT SNOW 23 19 85 NE14G21 29.98F WCI 11  
KNOX* CLOUDY 25 19 80 NE17G23 29.96S WCI 11  
SOUTH BEND LGT SNOW 22 17 81 NE14G23 30.00F WCI 9  
ELKHART* LGT SNOW 21 18 86 NE14 30.00S WCI 8  
GOSHEN LGT SNOW 22 20 92 NE15G25 29.97F VSB 3/4 WCI 9  
MONTICELLO* LGT SNOW 25 23 91 NE16G22 29.88F WCI 13  
LOGANSPORT* LGT SNOW 27 25 93 NE12G26 29.88F VSB 3/4 WCI 16  
ROCHESTER* LGT SNOW 28 23 80 NE15G21 29.92F VSB 3/4 WCI 17  
WARSAW* LGT SNOW 25 21 86 NE14G22 29.94F WCI 13  
KENDALLVILLE* LGT SNOW 24 19 84 NE15 29.95F VSB 1 WCI 11  
AUBURN* LGT SNOW 25 23 93 NE15G22 29.95F WCI 12  
FORT WAYNE SNOW 27 24 89 NE21G33 29.90F VSB 1/4 WCI 13  
HUNTINGTON* LGT SNOW 26 24 93 NE16G22 29.88F WCI 13  
PERU/GRISSOM HVY SNOW 26 26 100 NE23 29.84F VSB 1/4 WCI 11  
 

 
INZ028>050-191800-  
CENTRAL INDIANA  
 
CITY SKY/WX TMP DP RH WIND PRES REMARKS
 
LAFAYETTE LGT SNOW 26 25 96 NE15G29 29.85F FOG WCI 14  
KOKOMO* SNOW 28 27 96 NE18G28 29.84F VSB 1/2 WCI 15  
MUNCIE* FRZ RAIN 32 28 85 NE18G28 29.79F FOG WCI 20  
INDIANAPOLIS LGT RAIN 33 31 92 NE18 29.73F FOG WCI 22  
 

 
MIZ043>046-050>051-056>058-064>065-071>073-077>080-191800-  
SOUTHWEST LOWER MICHIGAN  
 
CITY SKY/WX TMP DP RH WIND PRES REMARKS
 
BATTLE CREEK LGT SNOW 20 15 81 NE15 30.04F VSB 1 WCI 6  
BENTON HARBOR SNOW 20 14 77 NE9G21 30.05F VSB 1/2 WCI 9  
COLDWATER* LGT SNOW 22 20 91 NE15 30.00F WCI 9  
HILLSDALE* LGT SNOW 22 17 82 NE12 29.98F VSB 3/4 WCI 11  
HOLLAND LGT SNOW 19 13 77 NE9G21 30.11F VSB 1 WCI 8  
GRAND RAPIDS LGT SNOW 18 12 77 NE21G29 30.11F VSB 1 WCI 1  
KALAMAZOO LGT SNOW 19 14 81 NE13G20 30.04F VSB 1 WCI 6  
STURGIS* LGT SNOW 23 19 85 NE14 29.99F WCI 10  
THREE RIVERS* LGT SNOW 21 17 85 NE12 30.03F WCI 9  
 

 
OHZ001>008-015>018-024>025-191800-  
NORTHWEST OHIO  
 
CITY SKY/WX TMP DP RH WIND PRES REMARKS
 
DEFIANCE LGT SNOW 24 21 88 NE17G28 29.95F VSB 3/4 WCI 11  
FINDLAY SNOW 29 26 89 NE21 29.89F VSB 1/2 WCI 16  
OTTAWA* CLOUDY 28 27 93 NE23 29.92F WCI 14  
TOLEDO EXPRESS SNOW 26 21 81 NE15 29.99S VSB 1/2 WCI 14  
LIMA LGT SNOW 28 25 88 NE16G29 29.84F FOG WCI 16  
 

 
AND FOR LAKE MICHIGAN COASTAL AND OPEN LAKE BUOY OBSERVATIONS  
 
STATION/POSITION TEMP WIND PRES VSBY WAVE
 
AIR SEA DIR/SP/G HT/PER  
(F) (DEG/KT/KT) (MB) (MI) (FT/S)  
CALUMET HARBOR 26 30/ 18/ 26 1016.4F  
BURNS HARBOR 25 50/ 14/ 16 1016.6F  
SAINT JOSEPH 19 40/ 6/ 14 1018.3  
 

 

 
 
 
CLICK HERE TO GO TO PREVIOUS BULLETINS.

The Nexlab IN Page
The Nexlab OH Page
The Nexlab MI Page Main Text Page